Flag for Rwanda Weather past 2 weeks in Gitarama, Rwanda

Now
70 °F

Broken clouds.


Feels Like: 70 °F
Forecast: 65 / 82 °F
Wind: 7 mph from Southwest

Location: Kigali Airport

Current Time: Jul 26, 2014 at 10:07:38 AM

Latest Report: Jul 26, 2014 at 9:30 AM


Visibility: 5 mi

Pressure: 30.21 "Hg

Humidity: 83%

Dew point: 64 °F

Location of GitaramaLocation

Historic Weather in Gitarama — Graph

°F

Gitarama temperature yesterday

Maximum temperature yesterday: 82 °F (at 3:00 PM)
Minimum temperature yesterday: 66 °F (at 5:00 AM)
Average temperature yesterday: 74 °F

Past Weeks' High & Low Weather Summary

 TemperatureHumidityPressure
High86 °F (Jul 14, 2:00 PM)100% (Jul 19, 4:00 AM)30.30 "Hg (Jul 19, 4:00 AM)
Low55 °F (Jul 19, 4:00 AM)31% (Jul 14, 4:00 PM)30.07 "Hg (Jul 14, 3:00 PM)
Average73 °F57%30.17 "Hg
* Reported Jul 11 9:00 AM — Jul 26 9:00 AM, Gitarama, Weather by CustomWeather, © 2014

Note: Actual official high and low records may vary slightly from our data, if they occured in-between our weather recording intervals... More about our weather records

Advertising

Gitarama weather history for previous 24 hours

 ConditionsComfort  
Time TempWeatherWind HumidityBarometerVisibility
9:00 AM
Jul 26
70 °FBroken clouds.7 mph83%30.21 "Hg5 mi
8:30 AM70 °FPartly sunny.5 mph83%30.18 "Hg5 mi
3:30 AM70 °FPassing clouds.No wind78%30.12 "Hg5 mi
2:30 AM70 °FPassing clouds.3 mph78%30.12 "Hg5 mi
2:00 AM70 °FPartly cloudy.3 mph78%30.12 "Hg5 mi
11:00 PM
Jul 25
72 °FPassing clouds.6 mph73%30.18 "HgN/A
9:00 PM75 °FPartly cloudy.7 mph57%30.15 "HgN/A
8:00 PM77 °FPassing clouds.6 mph54%30.12 "HgN/A
7:00 PM79 °FPartly cloudy.7 mph45%30.09 "HgN/A
6:00 PM81 °FScattered clouds.7 mph39%30.07 "HgN/A
5:30 PM81 °FScattered clouds.7 mph39%30.07 "HgN/A
4:30 PM82 °FScattered clouds.9 mph37%30.07 "HgN/A
4:00 PM82 °FScattered clouds.9 mph37%30.07 "HgN/A
3:30 PM82 °FScattered clouds.9 mph37%30.07 "HgN/A
3:00 PM82 °FScattered clouds.9 mph37%30.07 "HgN/A
2:00 PM81 °FScattered clouds.9 mph37%30.09 "HgN/A
1:30 PM81 °FScattered clouds.3 mph37%30.12 "HgN/A
12:00 PM81 °FScattered clouds.9 mph39%30.15 "HgN/A
11:30 AM79 °FScattered clouds.7 mph42%30.18 "Hg6 mi
11:00 AM77 °FScattered clouds.8 mph44%30.21 "Hg6 mi
10:30 AM75 °FBroken clouds.6 mph44%30.21 "Hg6 mi
10:00 AM75 °FBroken clouds.3 mph54%30.21 "Hg4 mi
Weather by CustomWeather, © 2014

See weather overviewHow to use our weather pages